Location: Muenchen
(48.1800°N, 11.5800°E)
Time: 00:32:19
(UTC+01:00)

Tiros 1 - Pass Details

Date: 22 June 2018
Orbit: 630 x 664 km, 48.4° (Epoch: 13 November)

Event Time Altitude Azimuth Distance (km) Brightness Sun altitude
Rises 00:43:13 0° 285° (WNW) 2,956 10.9 -18.0°
Reaches altitude 10° 00:45:38 10° 279° (W) 2,050 9.9 -18.1°
Maximum altitude 00:50:06 43° 208° (SSW) 911 7.5 -18.2°
Enters shadow 00:51:06 38° 175° (S) 1,000 7.6 -18.2°
